Lapse_Rate
5.3 5.3 5.7 6.5 6.5 6.4 6.5 6.4 6.7 6.7 6.5 6.1 5.9 5.6 5.5 6.0 5.9 5.8 6.0 5.8 5.7 5.8 5.8 6.0 5.8 5.6 4.7 4.3 4.5 4.7 4.6 4.1 4.6 5.2 5.4 5.5 5.6 5.8 6.2 6.2 6.1 6.1 6.2
5.0 5.4 5.8 6.1 6.1 6.8 6.5 6.2 7.0 6.6 6.5 6.4 6.1 5.7 5.7 6.0 6.2 5.8 5.5 5.4 5.9 5.7 5.8 5.7 5.7 5.6 5.0 4.2 4.6 4.4 4.3 4.0 4.4 5.0 4.9 5.0 5.4 5.6 5.9 6.0 6.1 6.0 6.0
5.6 5.7 5.9 6.3 6.3 6.1 6.3 6.2 6.3 6.7 6.7 6.6 6.5 5.7 5.8 5.5 6.0 5.0 5.6 4.8 5.0 5.3 5.2 5.6 5.6 5.4 4.7 4.5 4.4 4.9 4.8 4.4 4.1 4.4 4.1 4.3 5.4 5.7 5.5 5.7 5.7 5.8 5.8
5.3 5.3 5.8 6.1 6.2 6.4 6.1 6.2 6.4 6.6 6.7 6.8 6.7 6.2 5.5 5.3 5.1 4.9 5.1 4.6 4.9 4.7 4.8 4.7 4.8 5.2 5.2 4.6 4.2 4.8 4.4 4.3 4.4 4.2 3.9 4.1 4.5 5.2 5.1 5.2 5.3 5.5 5.5
5.3 5.3 5.2 5.3 5.7 5.9 6.3 6.7 6.4 6.9 6.8 6.1 5.9 5.7 5.5 5.3 5.3 4.9 4.8 4.8 4.5 4.5 4.7 4.2 3.9 4.0 4.7 4.0 4.6 4.0 4.4 4.2 3.7 4.0 3.8 4.0 4.0 4.5 4.5 4.8 4.8 4.9 5.1
5.6 5.6 5.2 5.2 5.3 5.4 5.4 5.5 6.0 6.1 6.4 5.7 5.6 5.7 5.7 5.4 5.2 4.9 4.5 4.5 4.6 4.7 4.3 4.3 4.5 4.4 4.5 4.0 4.7 4.5 4.4 4.0 3.7 4.1 3.9 3.8 4.1 4.0 4.6 4.6 4.8 4.7 4.6
5.1 5.2 5.4 5.4 5.0 4.7 4.8 5.3 5.3 5.4 5.4 5.4 5.4 5.5 5.5 5.3 5.1 5.2 5.1 4.7 4.4 4.4 4.2 4.2 4.3 4.2 4.2 4.4 4.4 4.5 4.6 4.6 4.3 4.3 4.3 4.0 3.9 3.9 4.1 3.7 4.2 4.8 4.8
5.3 5.0 5.3 5.3 5.2 5.1 5.1 5.3 4.9 5.0 4.9 4.9 5.0 5.1 5.0 5.0 5.0 4.8 4.8 4.8 4.7 4.4 4.2 3.9 3.7 4.2 3.5 3.7 4.2 4.1 4.4 4.8 4.7 4.6 4.5 4.4 4.1 3.9 3.8 3.9 4.0 4.5 4.8
5.2 5.2 5.1 5.2 5.5 5.2 5.4 5.2 5.2 5.3 5.2 5.4 4.8 4.8 5.0 4.6 4.2 4.8 4.7 4.9 4.7 4.6 4.7 4.6 4.5 4.1 3.9 4.8 3.7 4.1 4.3 4.9 5.0 5.0 4.8 4.6 4.8 4.4 4.4 4.4 4.3 3.8 4.4
5.1 5.2 5.2 5.1 5.2 5.3 5.1 5.1 5.0 5.2 5.1 5.1 4.9 4.8 5.0 4.8 4.8 4.7 4.7 4.6 4.6 4.2 4.7 4.7 4.7 4.7 4.7 4.5 4.6 4.6 4.7 4.7 4.5 4.7 5.1 5.3 5.1 5.0 4.9 4.6 4.3 4.3 4.4
5.3 5.0 4.9 5.0 5.0 5.1 5.4 5.5 5.3 5.2 5.3 5.4 5.4 5.5 5.1 4.8 4.6 4.6 4.8 4.8 4.8 4.7 4.8 4.7 4.7 4.7 4.7 4.5 4.5 4.8 5.0 4.9 4.9 4.6 4.5 4.7 4.9 4.6 4.7 4.8 4.3 4.4 4.2
5.3 5.3 5.1 4.8 4.9 5.0 5.0 5.1 5.4 5.4 5.2 5.0 4.9 4.8 4.7 4.8 4.9 5.0 5.0 4.7 4.8 4.8 4.8 4.7 4.7 4.6 4.7 4.7 4.8 5.0 4.9 5.5 5.3 4.9 4.9 4.7 4.7 4.4 4.5 4.5 4.4 4.5 4.6
5.2 5.1 5.0 5.0 4.9 4.7 4.7 4.7 4.6 4.5 4.5 4.5 4.5 4.5 4.5 4.5 4.6 4.5 4.5 4.7 4.9 5.0 5.0 5.0 4.8 4.8 4.7 4.7 4.6 4.6 4.5 4.5 4.5 4.6 4.9 5.1 5.2 5.2 4.9 4.8 5.0 5.0 5.0
5.3 5.1 5.0 4.8 4.5 4.4 4.3 4.3 4.3 4.4 4.4 4.4 4.4 4.5 4.5 4.4 4.5 4.6 4.6 4.6 4.5 4.5 4.5 4.4 4.4 4.5 4.7 4.8 4.8 4.6 4.5 4.6 4.6 4.6 4.5 4.5 4.6 4.6 4.7 4.8 4.9 5.0 5.1
5.1 5.0 5.0 4.8 4.6 4.5 4.6 4.8 4.8 4.8 4.7 4.7 4.6 4.6 4.6 4.7 4.8 4.8 4.7 4.4 4.2 4.1 4.2 4.2 4.2 4.3 4.3 4.3 4.2 4.2 4.4 4.6 4.5 4.5 4.5 4.5 4.4 4.4 4.4 4.5 4.7 4.6 4.7
4.8 4.8 4.7 4.5 4.5 4.4 4.3 4.0 3.9 3.9 4.0 4.1 4.3 4.5 4.6 4.7 4.7 4.7 4.7 5.0 5.0 4.7 4.2 3.7 3.5 3.5 3.5 3.7 3.8 4.0 4.1 4.2 4.4 4.6 4.8 4.7 4.7 4.6 4.7 4.6 4.5 4.6 4.6
4.4 4.2 4.2 4.2 4.3 4.1 3.9 3.6 3.3 3.0 2.9 2.9 2.9 2.9 3.0 3.2 3.3 3.5 3.7 3.9 4.1 4.2 4.0 3.8 3.6 3.2 2.9 2.7 2.7 2.8 3.1 3.4 3.7 3.9 4.2 4.4 4.5 4.5 4.6 4.6 4.7 4.7 4.6
4.5 4.4 4.2 4.1 3.9 3.6 3.4 3.2 3.0 2.9 2.8 2.6 2.3 2.0 1.9 1.8 1.9 1.9 1.9 1.9 2.2 2.5 3.0 3.3 3.1 3.1 2.9 2.7 2.6 2.6 2.6 2.8 2.9 3.1 3.4 3.7 4.0 4.1 4.1 4.1 4.3 4.4 4.5
4.2 4.2 4.1 3.8 3.6 3.5 3.4 3.2 3.1 2.9 2.6 2.4 2.2 2.1 2.0 1.8 1.6 1.5 1.4 1.4 1.3 1.3 1.3 1.6 2.0 2.4 2.6 2.4 2.3 2.3 2.3 2.3 2.6 3.0 3.3 3.4 3.6 3.8 4.0 3.9 4.0 4.1 4.1
4.1 3.9 3.8 3.7 3.5 3.4 3.3 3.2 3.0 2.7 2.4 2.3 2.2 2.0 1.8 1.7 1.6 1.5 1.4 1.4 1.4 1.6 1.7 1.9 1.9 2.0 2.1 2.4 2.6 2.4 2.3 2.3 2.4 2.7 2.9 3.0 3.1 3.2 3.4 3.6 3.9 3.9 4.2
4.2 4.0 3.8 3.5 3.4 3.2 3.0 2.8 2.6 2.3 2.2 2.1 2.0 1.8 1.7 1.6 1.6 1.6 1.7 1.8 1.8 1.8 1.9 2.1 2.2 2.3 2.3 2.4 2.6 2.7 2.7 2.8 2.8 2.9 3.0 3.1 3.4 3.5 3.7 4.1 3.9 3.7 3.9
3.5 3.4 3.3 3.2 3.1 2.9 2.7 2.5 2.2 2.1 2.0 2.0 1.9 1.9 1.9 1.9 2.0 2.0 2.2 2.2 2.4 2.6 2.7 2.8 3.1 3.4 3.7 3.8 4.1 4.5 4.7 4.8 4.3 4.3 4.8 5.1 5.5 5.4 5.3 5.2 5.0 5.0 4.9
3.3 3.0 2.9 2.8 2.6 2.4 2.3 2.2 2.1 2.0 2.1 2.2 2.3 2.4 2.5 2.6 2.6 2.7 3.0 3.4 3.7 4.0 4.5 4.8 5.4 5.8 6.1 6.3 6.4 6.6 6.8 7.0 6.9 6.8 6.7 6.6 6.7 6.8 6.9 6.8 6.6 6.4 6.1
2.8 2.8 2.8 2.7 2.6 2.3 2.1 2.0 2.1 2.4 2.7 2.9 3.0 3.2 3.5 3.8 4.1 4.5 4.9 5.2 5.7 5.9 5.9 6.0 6.2 6.5 6.7 7.0 7.0 7.1 7.2 7.3 7.3 7.4 7.7 7.8 7.6 7.4 7.3 7.1 7.3 7.3 7.2
2.7 2.6 2.6 2.6 2.5 2.4 2.5 2.6 2.7 3.1 3.5 3.7 4.1 4.5 5.1 5.6 6.1 6.3 6.3 6.2 6.1 6.0 6.0 6.0 6.0 6.2 6.6 6.8 6.7 6.7 6.8 6.8 6.8 6.9 7.2 7.5 7.5 7.7 7.8 7.8 7.9 7.9 7.8
2.7 2.7 2.7 2.7 2.7 2.9 3.2 3.3 3.7 4.2 4.6 5.1 5.7 6.2 6.5 6.6 6.5 6.3 6.2 6.0 5.8 5.9 5.9 5.8 5.7 5.9 6.0 6.3 6.4 6.4 6.3 6.3 6.3 6.4 6.5 6.7 6.9 7.2 7.3 7.4 7.7 7.8 7.9
Wind_Speed
15 16 19 20 21 22 20 12 5 3 4 2 2 3 3 5 4 4 5 11 14 13 8 6 7 6 3 3 4 2 4 2 2 4 2 2 3 3 3 6 7 9 17
20 20 20 20 20 19 21 17 11 6 5 3 3 3 3 3 3 7 6 5 10 10 8 6 4 4 3 3 3 2 2 2 5 3 3 2 1 2 4 3 4 7 11
17 19 20 19 18 20 19 18 18 17 14 6 6 5 6 3 4 5 4 4 3 6 7 7 6 4 3 3 1 5 4 3 3 3 4 2 3 1 2 6 4 6 4
17 15 18 19 18 18 20 19 18 18 15 16 9 10 9 8 7 6 5 6 8 5 2 4 6 4 2 3 4 3 2 4 3 1 1 1 3 3 2 2 4 4 6
13 14 13 15 16 17 16 17 16 20 19 19 18 8 10 7 6 5 8 8 8 13 6 7 3 1 2 2 3 3 4 3 3 3 2 1 1 2 2 3 3 2 5
11 13 14 13 15 14 15 15 18 19 21 20 18 17 19 13 10 7 5 4 4 5 10 9 6 4 5 4 2 3 5 5 4 3 3 3 4 4 3 3 4 4 4
9 11 13 13 13 16 15 13 17 19 17 17 18 19 17 15 13 11 9 10 8 6 11 9 7 4 5 4 4 3 3 3 2 4 5 5 4 2 3 3 4 4 4
6 8 10 10 12 13 13 14 16 15 16 17 17 15 14 9 9 10 8 7 7 8 15 14 15 15 11 8 6 2 3 4 4 6 5 5 3 4 4 5 5 6 4
6 7 8 8 9 11 13 14 14 14 16 15 12 13 13 14 9 10 8 6 7 8 14 15 13 16 15 14 7 3 4 3 4 5 5 5 6 4 5 6 6 9 11
5 6 7 8 9 9 9 12 12 13 12 13 12 10 11 10 9 9 10 10 9 12 10 10 11 10 12 13 9 8 7 5 4 4 5 6 6 6 5 6 7 8 10
5 5 5 6 6 6 8 8 9 11 12 12 11 12 11 10 6 7 8 8 10 12 10 9 8 9 9 10 9 10 8 9 9 6 6 9 9 7 7 6 8 9 9
5 5 5 6 7 8 9 10 10 10 9 7 8 9 8 8 9 11 11 13 9 12 10 10 8 8 9 9 9 9 8 9 10 10 12 10 6 10 9 8 11 10 11
6 5 5 6 6 7 8 9 10 10 10 8 8 8 9 9 9 8 8 10 9 9 12 10 10 10 10 10 8 8 9 8 9 9 10 10 11 10 7 7 9 9 8
5 4 5 5 5 5 5 6 7 7 7 7 8 10 11 10 9 8 9 9 11 9 9 9 8 8 9 9 7 9 9 8 9 9 9 10 10 11 10 10 10 8 9
4 4 3 3 4 5 5 5 5 6 6 6 5 6 7 8 10 11 10 9 10 9 10 10 9 8 8 6 10 9 8 8 9 9 9 9 12 20 16 9 10 11 9
5 4 2 2 3 3 4 5 5 5 4 4 4 5 5 5 6 7 9 10 11 10 10 9 10 10 7 17 18 16 10 10 9 9 10 9 15 14 20 21 21 18 12
5 4 3 1 2 2 3 3 3 3 4 5 5 6 5 5 4 5 5 5 7 9 11 10 10 11 10 19 20 20 9 9 9 10 10 10 8 14 11 16 21 20 23
5 4 2 1 1 1 1 2 3 3 3 3 3 4 6 7 7 8 8 6 6 6 6 9 10 11 10 20 21 21 10 9 10 9 10 11 12 11 14 14 16 15 13
4 3 2 2 2 4 5 5 5 5 5 5 5 7 7 8 8 9 9 8 9 10 9 9 9 9 11 22 21 18 10 10 9 9 10 10 12 18 23 15 16 17 16
3 2 1 1 5 5 5 5 5 6 6 6 5 6 6 6 8 8 8 7 7 10 9 11 10 15 12 19 20 18 10 11 10 11 12 19 18 24 24 16 15 16 13
2 3 3 2 3 4 4 5 5 5 5 7 7 7 6 8 7 6 6 7 8 9 9 10 9 9 11 12 22 22 12 10 11 11 12 10 23 26 27 27 16 18 20
3 3 2 3 4 4 4 5 5 5 6 7 8 7 6 7 8 9 9 8 8 9 9 10 9 7 8 15 18 23 22 21 12 12 11 13 27 29 31 27 30 32 27
2 3 3 4 4 5 4 5 7 7 6 7 8 7 8 7 9 8 9 8 7 7 8 8 9 8 8 9 20 23 24 24 15 12 19 32 32 32 27 29 30 29 13
3 1 4 5 5 5 5 6 7 7 7 9 8 7 7 9 5 6 7 7 7 7 8 9 9 9 10 9 9 10 11 18 15 19 16 21 27 30 24 21 18 12 12
3 3 4 5 6 6 6 6 8 7 8 8 8 8 7 7 8 7 7 7 8 10 9 8 9 11 11 10 21 19 12 12 17 21 12 12 12 12 12 11 13 12 12
3 4 4 5 7 6 7 8 6 6 7 8 7 6 7 6 6 7 8 16 19 20 21 21 18 12 21 26 28 27 28 29 28 12 10 11 11 11 13 12 13 12 16
Wind_Direction
345 355 2 2 358 5 4 350 69 111 134 136 133 117 172 166 133 97 146 151 149 154 154 145 143 147 167 170 191 148 169 116 110 103 58 48 5 295 251 218 218 214 213
2 2 6 8 7 4 5 359 3 63 66 57 78 105 101 84 81 88 54 73 128 152 155 147 152 160 157 167 193 202 150 122 170 137 121 170 343 275 252 255 225 216 213
2 359 4 6 6 13 1 2 16 28 23 35 85 89 80 45 84 69 52 38 86 145 156 148 153 170 162 181 134 217 163 181 189 227 145 150 201 115 241 241 231 222 209
6 9 1 7 1 9 7 7 18 28 24 20 53 64 71 69 53 33 52 8 16 64 106 118 121 128 136 184 205 167 216 150 195 286 209 109 136 175 265 276 254 232 225
12 6 13 12 7 7 9 7 16 36 29 31 34 38 63 66 61 49 44 30 14 25 11 15 17 298 188 186 224 175 206 230 159 203 185 195 121 117 145 230 276 322 244
12 15 15 20 19 20 12 10 26 32 33 35 31 38 48 41 39 32 42 25 35 42 10 18 354 324 327 322 251 227 206 205 204 204 227 184 189 199 165 196 230 215 253
13 20 16 14 19 21 14 16 29 35 33 38 39 38 37 41 37 27 29 27 13 9 358 5 18 3 338 302 270 305 295 269 241 237 243 227 239 138 202 213 234 227 246
13 18 25 21 15 18 17 27 30 31 32 38 36 45 42 40 38 28 29 29 18 7 359 10 13 1 352 352 344 299 272 236 233 247 239 251 232 201 198 224 224 255 246
20 17 17 23 20 18 14 18 25 30 34 38 38 35 40 41 25 29 28 25 18 15 6 11 12 1 358 359 341 320 298 291 263 243 238 243 255 229 228 231 223 244 263
45 24 16 20 24 20 10 15 22 30 28 33 37 36 39 34 26 18 20 19 15 15 13 15 8 357 356 358 0 350 335 294 278 266 262 260 256 247 232 230 237 236 249
83 52 23 12 13 28 33 34 30 24 23 23 22 29 22 24 15 24 22 18 10 11 10 3 2 4 0 355 356 349 342 337 336 296 257 266 261 253 250 239 238 241 240
107 70 43 24 16 14 16 20 21 27 25 27 30 22 11 14 15 12 10 2 7 5 1 357 360 355 353 349 350 343 350 346 335 324 335 307 265 265 255 251 252 240 243
119 96 54 33 23 15 11 10 11 9 8 11 20 20 23 17 9 2 358 360 357 356 357 356 353 349 345 341 335 350 338 332 330 329 323 321 324 308 269 256 255 253 251
117 95 63 42 28 23 21 14 6 2 0 5 12 7 2 360 357 355 359 356 354 348 351 344 339 338 335 325 332 330 323 316 316 312 313 313 310 306 323 317 280 256 257
125 108 88 42 17 8 9 7 2 354 351 355 11 357 346 344 345 346 348 347 348 342 343 336 333 331 327 331 329 319 313 308 303 298 296 295 296 298 297 293 290 302 271
148 142 112 58 11 354 343 337 335 338 342 345 341 328 328 327 329 329 331 337 337 338 335 327 323 323 319 318 323 327 318 312 305 304 298 292 296 298 300 301 299 289 287
161 166 166 248 290 260 244 297 313 321 338 331 333 330 326 318 301 301 297 306 318 319 321 319 320 316 314 319 321 318 312 308 302 299 298 293 291 294 280 288 294 294 292
159 162 169 228 263 235 320 329 341 338 326 311 307 312 327 329 330 332 332 317 310 294 289 299 307 310 307 316 317 317 315 294 287 288 287 286 292 295 298 291 289 284 283
148 147 165 214 313 355 351 351 345 343 340 337 334 335 329 325 327 325 322 319 319 318 313 312 308 295 299 312 317 316 306 296 296 293 285 282 287 292 296 290 289 288 285
116 134 132 40 19 347 341 339 333 333 327 321 314 310 304 315 316 306 308 308 301 304 310 308 304 306 308 305 309 315 311 307 305 297 289 291 291 295 298 293 290 287 286
102 94 54 25 322 321 328 312 313 305 293 312 305 313 311 313 295 293 299 298 306 307 299 296 295 289 292 306 312 314 311 303 297 296 300 294 294 295 294 290 285 280 286
34 11 359 321 307 312 314 299 300 297 305 302 305 304 300 302 312 307 304 304 304 303 302 301 298 300 295 301 309 307 306 304 304 299 294 291 293 293 292 291 284 284 283
337 321 317 311 307 311 303 301 304 308 304 305 299 293 296 297 300 297 306 304 303 297 301 300 301 302 313 304 304 307 308 306 303 294 291 296 295 293 292 285 282 284 276
310 305 322 312 302 300 306 285 298 307 301 298 295 292 298 301 303 298 294 291 292 293 289 291 291 306 310 304 303 295 295 298 300 294 287 288 293 293 285 285 279 269 265
323 325 307 299 298 303 295 290 302 298 293 293 293 294 295 294 292 287 284 289 285 282 286 288 307 310 306 302 305 309 308 305 303 311 304 298 300 298 293 287 280 273 264
315 306 294 298 295 290 289 293 286 287 289 292 295 294 299 293 286 293 293 290 295 300 295 304 310 307 305 309 309 311 310 310 316 319 310 304 301 297 300 295 297 278 264